Location: The Saddle
(36.8333°N, 80.3417°W)
Time: 12:53:40
(UTC-05:00)

A-11 Canister half - Pass Details

Date: 13 December 2023
Orbit: 1512 x 1687 km, 47.2° (Epoch: 22 February)

Event Time Altitude Azimuth Distance (km) Brightness Sun altitude
Rises 19:14:54 0° 182° (S) 4,637 11.7 -25.1°
Reaches altitude 10° 19:19:05 10° 165° (SSE) 3,668 10.9 -25.9°
Enters shadow 19:23:11 18° 139° (SE) 3,103 10.3 -26.7°
Maximum altitude 19:24:58 19° 124° (SE) 3,046 - -27.1°
Drops below altitude 10° 19:30:57 10° 84° (E) 3,737 - -28.2°
Sets 19:35:13 0° 68° (ENE) 4,754 - -29.1°
